Overview Statistics Trail Chart Weather Telemetry Raw packets
 

This is the latest recevied weather packets stored in our database for station/object DH2PG-6. If no packets are shown the sender has not sent any weather packets the latest 10 day(s).

<< 90 91 92 93 94 95 >>
Time Temp. Humidity Pressure Rain* Wind** Luminosity Snow
1787831384 28.33° C 54% 1009.2 hPa 0 mm - - -
1787830783 27.78° C 54% 1009.2 hPa 0 mm - - -
1787830182 27.78° C 56% 1009.3 hPa 0 mm - - -
1787829882 27.78° C 56% 1009.5 hPa 0 mm - - -
1787829582 27.22° C 56% 1009.4 hPa 0 mm - - -
1787829281 27.22° C 57% 1009.3 hPa 0 mm - - -
1787828981 27.22° C 56% 1009.2 hPa 0 mm - - -
1787828681 27.22° C 57% 1009.4 hPa 0 mm - - -
1787827780 26.11° C 59% 1009.3 hPa 0 mm - - -
1787827480 26.11° C 60% 1009.3 hPa 0 mm - - -
1787827179 26.11° C 59% 1009.3 hPa 0 mm - - -
1787826879 26.11° C 60% 1009.4 hPa 0 mm - - -
1787826579 26.11° C 60% 1009.5 hPa 0 mm - - -
1787826279 26.11° C 60% 1009.3 hPa 0 mm - - -
1787825978 26.11° C 60% 1008.9 hPa 0 mm - - -
1787825678 26.11° C 60% 1009 hPa 0 mm - - -
1787825378 25.56° C 61% 1009 hPa 0 mm - - -
1787825077 25.56° C 61% 1009 hPa 0 mm - - -
1787824777 25.56° C 61% 1009 hPa 0 mm - - -
1787824477 25.56° C 61% 1008.8 hPa 0 mm - - -
1787824176 25.56° C 61% 1009 hPa 0 mm - - -
1787823876 25.56° C 62% 1009.3 hPa 0 mm - - -
1787823576 25° C 64% 1009.2 hPa 0 mm - - -
1787822975 23.89° C 67% 1009.2 hPa 0 mm - - -
1787822675 23.89° C 66% 1008.9 hPa 0 mm - - -

* Rain latest hour (hover to see other rain measurements)
** Current wind speed in m/s (hover to see current wind gust speed)